Regional Weather Roundup
Issued by NWS

Home | Current Version | Previous Version | Graphics & Text | Print | Product List | Glossary On
Versions: 1 2 3 4 5 6 7 8 9 10 11 12 13 14 15 16 17 18 19 20 21 22 23 24 25 26 27 28 29 30 31 32 33 34 35 36 37 38 39 40 41 42 43 44 45 46 47 48 49 50
000
ASUS45 KPSR 281200
RWRAZ

ARIZONA REGIONAL HOURLY WEATHER ROUNDUP
NATIONAL WEATHER SERVICE PHOENIX AZ
500 AM MST TUE APR 28 2015

NOTE: FAIR INDICATES FEW OR NO CLOUDS BELOW 12,000 FEET WITH NO
SIGNIFICANT WEATHER AND/OR OBSTRUCTIONS TO VISIBILITY.

AZZ001>003-036-281300-
NORTHWEST ARIZONA

CITY           SKY/WX    TMP DP  RH WIND       PRES   REMARKS
KINGMAN        CLEAR     50  32  50 CALM      30.09R
6HR MIN TEMP:  45; 6HR MAX TEMP:  57;

$$

AZZ004>008-015-016-018-281300-
NORTH CENTRAL ARIZONA

CITY           SKY/WX    TMP DP  RH WIND       PRES   REMARKS
GRAND CANYON   CLEAR     33  28  81 E6        30.24R WCI  28
6HR MIN TEMP:  31; 6HR MAX TEMP:  37;

WILLIAMS       PTCLDY    36  30  80 S3        30.29R
PRESCOTT       CLEAR     44  34  67 S6        30.15S
6HR MIN TEMP:  43; 6HR MAX TEMP:  51;

FLAGSTAFF      NOT AVBL
PAYSON         PTCLDY    52  34  50 CALM      30.18R
$$

AZZ009>014-017-281300-
NORTHEAST ARIZONA

CITY           SKY/WX    TMP DP  RH WIND       PRES   REMARKS
WINSLOW        NOT AVBL
SAINT JOHNS    MOCLDY    39  35  86 CALM      30.19R
6HR MIN TEMP:  39; 6HR MAX TEMP:  54;

WINDOW ROCK    CLOUDY    45  38  76 SE5       30.25R
6HR MIN TEMP:  43; 6HR MAX TEMP:  49;

SHOW LOW       MOCLDY    45  34  65 S10       30.21R
$$

AZZ023-281300-
GREATER PHOENIX AREA

CITY           SKY/WX    TMP DP  RH WIND       PRES   REMARKS
PHOENIX        PTCLDY    68  46  45 E7        29.95R
6HR MIN TEMP:  68; 6HR MAX TEMP:  77;

DEER VALLEY    MOCLDY    65  43  44 CALM      29.96R
6HR MIN TEMP:  62; 6HR MAX TEMP:  72;

SCOTTSDALE     PTCLDY    63  49  60 CALM      29.97R
6HR MIN TEMP:  61; 6HR MAX TEMP:  73;

MESA-GATEWAY   PTCLDY    61  46  59 E5        29.99R
$$

AZZ027-028-281300-
SOUTHWEST MARICOPA COUNTY AND PINAL COUNTY

CITY           SKY/WX    TMP DP  RH WIND       PRES   REMARKS
CASA GRANDE    CLEAR     61  37  41 CALM      29.96S
6HR MIN TEMP:  61; 6HR MAX TEMP:  68;

$$

AZZ503-504-507>509-281300-
SOUTHEAST ARIZONA

CITY           SKY/WX    TMP DP  RH WIND       PRES   REMARKS
TUCSON         CLEAR     64  35  34 E9        30.05R
6HR MIN TEMP:  62; 6HR MAX TEMP:  67;

NOGALES        CLEAR     57  31  37 S5        30.08R
6HR MIN TEMP:  56; 6HR MAX TEMP:  63;

SAFFORD        CLEAR     54  35  48 SE7       30.16R
6HR MIN TEMP:  54; 6HR MAX TEMP:  64;

$$

AZZ020-021-025-026-031-281300-
SOUTHWEST ARIZONA

CITY           SKY/WX    TMP DP  RH WIND       PRES   REMARKS
YUMA           CLEAR     66  35  31 CALM      29.88S
6HR MIN TEMP:  62; 6HR MAX TEMP:  72;

$$

CAZ031-033-041-043-047-048-061-281300-
SOUTHERN CALIFORNIA

CITY           SKY/WX    TMP DP  RH WIND       PRES   REMARKS
DOWNTOWN L.A.  CLEAR     61  39  44 N3        29.93F
6HR MIN TEMP:  61; 6HR MAX TEMP:  67;

L.A. AIRPORT   CLEAR     59  41  51 CALM      29.94F
6HR MIN TEMP:  56; 6HR MAX TEMP:  66;

SAN DIEGO      CLEAR     64  37  36 CALM      29.94S
6HR MIN TEMP:  62; 6HR MAX TEMP:  71;

BURBANK        CLEAR     58  32  37 W7        29.95F
6HR MIN TEMP:  58; 6HR MAX TEMP:  68;

ONTARIO        CLEAR     57  34  41 CALM      29.96S
6HR MIN TEMP:  57; 6HR MAX TEMP:  66;

RIVERSIDE      CLEAR     56  38  50 NE7       29.96F
6HR MIN TEMP:  56; 6HR MAX TEMP:  66;

PALM SPRINGS   CLEAR     69  27  20 N3        29.94S
6HR MIN TEMP:  67; 6HR MAX TEMP:  79;

EL CENTRO NAS  CLEAR     60  21  22 W7        29.90S
6HR MIN TEMP:  59; 6HR MAX TEMP:  67;

IMPERIAL       CLEAR     62  24  23 W7        29.87F
6HR MIN TEMP:  60; 6HR MAX TEMP:  67;

BLYTHE         CLEAR     63  23  21 N5        29.91R
6HR MIN TEMP:  63; 6HR MAX TEMP:  73;

$$

NVZ020-UTZ003-281300-
SOUTHERN NEVADA-UTAH

CITY           SKY/WX    TMP DP  RH WIND       PRES   REMARKS
LAS VEGAS      NOT AVBL
SALT LAKE CITY CLEAR     45  37  73 SE3       30.22S
6HR MIN TEMP:  45; 6HR MAX TEMP:  49;

$$

NMZ009-TXZ055-281300-
NEW MEXICO-WEST TEXAS

CITY           SKY/WX    TMP DP  RH WIND       PRES   REMARKS
ALBUQUERQUE    PTCLDY    43  35  73 E3        30.30R
6HR MIN TEMP:  43; 6HR MAX TEMP:  49;

EL PASO        PTCLDY    46  30  53 CALM      30.23R
6HR MIN TEMP:  45; 6HR MAX TEMP:  52;

$$


........................KEY........................
SKY/WX - SKY CONDITION/WEATHER
TMP    - TEMPERATURE IN FAHRENHEIT
DP     - DEW POINT IN FAHRENHEIT
RH     - RELATIVE HUMIDITY IN PERCENT
WIND   - DIRECTION AND SPEED IN MILES PER HOUR (MPH)
VRB    - VARIABLE WIND DIRECTION
PRES   - MEAN SEA LEVEL PRESSURE IN INCHES OF MERCURY
         F - FALLING PRESSURE   R - RISING PRESSURE
         S - STEADY PRESSURE
VSB    - VISIBILITY IN MILES
HX     - HEAT INDEX IN FAHRENHEIT
WCI    - WIND CHILL INDEX IN FAHRENHEIT
TC     - TEMPERATURE IN CELSIUS WHICH IS ALSO KNOWN AS
         TEMPERATURE IN CENTIGRADE
AFB    - AIR FORCE BASE
         LUKE AFB IS LUKE AIR FORCE BASE
         DAVIS-MONTHAN IS DAVIS-MONTHAN AIR FORCE BASE
NAS    - NAVAL AIR STATION
         EL CENTRO NAS IS EL CENTRO NAVAL AIR STATION
N/A    - NOT AVAILABLE



USA.gov is the U.S. government's official web portal to all federal, state and local government web resources and services.